Year,Month,Day,Hour,Minute,Value (Times are PST for insolation in W/m^2)
2022,01,31,00,00,0.00
2022,01,31,00,01,0.00
2022,01,31,00,02,0.00
2022,01,31,00,03,0.00
2022,01,31,00,04,0.00
2022,01,31,00,05,0.00
2022,01,31,00,06,0.00
2022,01,31,00,07,0.00
2022,01,31,00,08,0.00
2022,01,31,00,09,0.00
2022,01,31,00,10,0.00
2022,01,31,00,11,0.00
2022,01,31,00,12,0.00
2022,01,31,00,13,0.00
2022,01,31,00,14,0.00
2022,01,31,00,15,0.00
2022,01,31,00,16,0.00
2022,01,31,00,17,0.00
2022,01,31,00,18,0.00
2022,01,31,00,19,0.00
2022,01,31,00,20,0.00
2022,01,31,00,21,0.00
2022,01,31,00,22,0.00
2022,01,31,00,23,0.00
2022,01,31,00,24,0.00
2022,01,31,00,25,0.00
2022,01,31,00,26,0.00
2022,01,31,00,27,0.00
2022,01,31,00,28,0.00
2022,01,31,00,29,0.00
2022,01,31,00,30,0.00
2022,01,31,00,31,0.00
2022,01,31,00,32,0.00
2022,01,31,00,33,0.00
2022,01,31,00,34,0.00
2022,01,31,00,35,0.00
2022,01,31,00,36,0.00
2022,01,31,00,37,0.00
2022,01,31,00,38,0.00
2022,01,31,00,39,0.00
2022,01,31,00,40,0.00
2022,01,31,00,41,0.00
2022,01,31,00,42,0.00
2022,01,31,00,43,0.00
2022,01,31,00,44,0.00
2022,01,31,00,45,0.00
2022,01,31,00,46,0.00
2022,01,31,00,47,0.00
2022,01,31,00,48,0.00
2022,01,31,00,49,0.00
2022,01,31,00,50,0.00
2022,01,31,00,51,0.00
2022,01,31,00,52,0.00
2022,01,31,00,53,0.00
2022,01,31,00,54,0.00
2022,01,31,00,55,0.00
2022,01,31,00,56,0.00
2022,01,31,00,57,0.00
2022,01,31,00,58,0.00
2022,01,31,00,59,0.00
2022,01,31,01,00,0.00
2022,01,31,01,01,0.00
2022,01,31,01,02,0.00
2022,01,31,01,03,0.00
2022,01,31,01,04,0.00
2022,01,31,01,05,0.00
2022,01,31,01,06,0.00
2022,01,31,01,07,0.00
2022,01,31,01,08,0.00
2022,01,31,01,09,0.00
2022,01,31,01,10,0.00
2022,01,31,01,11,0.00
2022,01,31,01,12,0.00
2022,01,31,01,13,0.00
2022,01,31,01,14,0.00
2022,01,31,01,15,0.00
2022,01,31,01,16,0.00
2022,01,31,01,17,0.00
2022,01,31,01,18,0.00
2022,01,31,01,19,0.00
2022,01,31,01,20,0.00
2022,01,31,01,21,0.00
2022,01,31,01,22,0.00
2022,01,31,01,23,0.00
2022,01,31,01,24,0.00
2022,01,31,01,25,0.00
2022,01,31,01,26,0.00
2022,01,31,01,27,0.00
2022,01,31,01,28,0.00
2022,01,31,01,29,0.00
2022,01,31,01,30,0.00
2022,01,31,01,31,0.00
2022,01,31,01,32,0.00
2022,01,31,01,33,0.00
2022,01,31,01,34,0.00
2022,01,31,01,35,0.00
2022,01,31,01,36,0.00
2022,01,31,01,37,0.00
2022,01,31,01,38,0.00
2022,01,31,01,39,0.00
2022,01,31,01,40,0.00
2022,01,31,01,41,0.00
2022,01,31,01,42,0.00
2022,01,31,01,43,0.00
2022,01,31,01,44,0.00
2022,01,31,01,45,0.00
2022,01,31,01,46,0.00
2022,01,31,01,47,0.00
2022,01,31,01,48,0.00
2022,01,31,01,49,0.00
2022,01,31,01,50,0.00
2022,01,31,01,51,0.00
2022,01,31,01,52,0.00
2022,01,31,01,53,0.00
2022,01,31,01,54,0.00
2022,01,31,01,55,0.00
2022,01,31,01,56,0.00
2022,01,31,01,57,0.00
2022,01,31,01,58,0.00
2022,01,31,01,59,0.00
2022,01,31,02,00,0.00
2022,01,31,02,01,0.00
2022,01,31,02,02,0.00
2022,01,31,02,03,0.00
2022,01,31,02,04,0.00
2022,01,31,02,05,0.00
2022,01,31,02,06,0.00
2022,01,31,02,07,0.00
2022,01,31,02,08,0.00
2022,01,31,02,09,0.00
2022,01,31,02,10,0.00
2022,01,31,02,11,0.00
2022,01,31,02,12,0.00
2022,01,31,02,13,0.00
2022,01,31,02,14,0.00
2022,01,31,02,15,0.00
2022,01,31,02,16,0.00
2022,01,31,02,17,0.00
2022,01,31,02,18,0.00
2022,01,31,02,19,0.00
2022,01,31,02,20,0.00
2022,01,31,02,21,0.00
2022,01,31,02,22,0.00
2022,01,31,02,23,0.00
2022,01,31,02,24,0.00
2022,01,31,02,25,0.00
2022,01,31,02,26,0.00
2022,01,31,02,27,0.00
2022,01,31,02,28,0.00
2022,01,31,02,29,0.00
2022,01,31,02,30,0.00
2022,01,31,02,31,0.00
2022,01,31,02,32,0.00
2022,01,31,02,33,0.00
2022,01,31,02,34,0.00
2022,01,31,02,35,0.00
2022,01,31,02,36,0.00
2022,01,31,02,37,0.00
2022,01,31,02,38,0.00
2022,01,31,02,39,0.00
2022,01,31,02,40,0.00
2022,01,31,02,41,0.00
2022,01,31,02,42,0.00
2022,01,31,02,43,0.00
2022,01,31,02,44,0.00
2022,01,31,02,45,0.00
2022,01,31,02,46,0.00
2022,01,31,02,47,0.00
2022,01,31,02,48,0.00
2022,01,31,02,49,0.00
2022,01,31,02,50,0.00
2022,01,31,02,51,0.00
2022,01,31,02,52,0.00
2022,01,31,02,53,0.00
2022,01,31,02,54,0.00
2022,01,31,02,55,0.00
2022,01,31,02,56,0.00
2022,01,31,02,57,0.00
2022,01,31,02,58,0.00
2022,01,31,02,59,0.00
2022,01,31,03,00,0.00
2022,01,31,03,01,0.00
2022,01,31,03,02,0.00
2022,01,31,03,03,0.00
2022,01,31,03,04,0.00
2022,01,31,03,05,0.00
2022,01,31,03,06,0.00
2022,01,31,03,07,0.00
2022,01,31,03,08,0.00
2022,01,31,03,09,0.00
2022,01,31,03,10,0.00
2022,01,31,03,11,0.00
2022,01,31,03,12,0.00
2022,01,31,03,13,0.00
2022,01,31,03,14,0.00
2022,01,31,03,15,0.00
2022,01,31,03,16,0.00
2022,01,31,03,17,0.00
2022,01,31,03,18,0.00
2022,01,31,03,19,0.00
2022,01,31,03,20,0.00
2022,01,31,03,21,0.00
2022,01,31,03,22,0.00
2022,01,31,03,23,0.00
2022,01,31,03,24,0.00
2022,01,31,03,25,0.00
2022,01,31,03,26,0.00
2022,01,31,03,27,0.00
2022,01,31,03,28,0.00
2022,01,31,03,29,0.00
2022,01,31,03,30,0.00
2022,01,31,03,31,0.00
2022,01,31,03,32,0.00
2022,01,31,03,33,0.00
2022,01,31,03,34,0.00
2022,01,31,03,35,0.00
2022,01,31,03,36,0.00
2022,01,31,03,37,0.00
2022,01,31,03,38,0.00
2022,01,31,03,39,0.00
2022,01,31,03,40,0.00
2022,01,31,03,41,0.00
2022,01,31,03,42,0.00
2022,01,31,03,43,0.00
2022,01,31,03,44,0.00
2022,01,31,03,45,0.00
2022,01,31,03,46,0.00
2022,01,31,03,47,0.00
2022,01,31,03,48,0.00
2022,01,31,03,49,0.00
2022,01,31,03,50,0.00
2022,01,31,03,51,0.00
2022,01,31,03,52,0.00
2022,01,31,03,53,0.00
2022,01,31,03,54,0.00
2022,01,31,03,55,0.00
2022,01,31,03,56,0.00
2022,01,31,03,57,0.00
2022,01,31,03,58,0.00
2022,01,31,03,59,0.00
2022,01,31,04,00,0.00
2022,01,31,04,01,0.00
2022,01,31,04,02,0.00
2022,01,31,04,03,0.00
2022,01,31,04,04,0.00
2022,01,31,04,05,0.00
2022,01,31,04,06,0.00
2022,01,31,04,07,0.00
2022,01,31,04,08,0.00
2022,01,31,04,09,0.00
2022,01,31,04,10,0.00
2022,01,31,04,11,0.00
2022,01,31,04,12,0.00
2022,01,31,04,13,0.00
2022,01,31,04,14,0.00
2022,01,31,04,15,0.00
2022,01,31,04,16,0.00
2022,01,31,04,17,0.00
2022,01,31,04,18,0.00
2022,01,31,04,19,0.00
2022,01,31,04,20,0.00
2022,01,31,04,21,0.00
2022,01,31,04,22,0.00
2022,01,31,04,23,0.00
2022,01,31,04,24,0.00
2022,01,31,04,25,0.00
2022,01,31,04,26,0.00
2022,01,31,04,27,0.00
2022,01,31,04,28,0.00
2022,01,31,04,29,0.00
2022,01,31,04,30,0.00
2022,01,31,04,31,0.00
2022,01,31,04,32,0.00
2022,01,31,04,33,0.00
2022,01,31,04,34,0.00
2022,01,31,04,35,0.00
2022,01,31,04,36,0.00
2022,01,31,04,37,0.00
2022,01,31,04,38,0.00
2022,01,31,04,39,0.00
2022,01,31,04,40,0.00
2022,01,31,04,41,0.00
2022,01,31,04,42,0.00
2022,01,31,04,43,0.00
2022,01,31,04,44,0.00
2022,01,31,04,45,0.00
2022,01,31,04,46,0.00
2022,01,31,04,47,0.00
2022,01,31,04,48,0.00
2022,01,31,04,49,0.00
2022,01,31,04,50,0.00
2022,01,31,04,51,0.00
2022,01,31,04,52,0.00
2022,01,31,04,53,0.00
2022,01,31,04,54,0.00
2022,01,31,04,55,0.00
2022,01,31,04,56,0.00
2022,01,31,04,57,0.00
2022,01,31,04,58,0.00
2022,01,31,04,59,0.00
2022,01,31,05,00,0.00
2022,01,31,05,01,0.00
2022,01,31,05,02,0.00
2022,01,31,05,03,0.00
2022,01,31,05,04,0.00
2022,01,31,05,05,0.00
2022,01,31,05,06,0.00
2022,01,31,05,07,0.00
2022,01,31,05,08,0.00
2022,01,31,05,09,0.00
2022,01,31,05,10,0.00
2022,01,31,05,11,0.00
2022,01,31,05,12,0.00
2022,01,31,05,13,0.00
2022,01,31,05,14,0.00
2022,01,31,05,15,0.00
2022,01,31,05,16,0.00
2022,01,31,05,17,0.00
2022,01,31,05,18,0.00
2022,01,31,05,19,0.00
2022,01,31,05,20,0.00
2022,01,31,05,21,0.00
2022,01,31,05,22,0.00
2022,01,31,05,23,0.00
2022,01,31,05,24,0.00
2022,01,31,05,25,0.00
2022,01,31,05,26,0.00
2022,01,31,05,27,0.00
2022,01,31,05,28,0.00
2022,01,31,05,29,0.00
2022,01,31,05,30,0.00
2022,01,31,05,31,0.00
2022,01,31,05,32,0.00
2022,01,31,05,33,0.00
2022,01,31,05,34,0.00
2022,01,31,05,35,0.00
2022,01,31,05,36,0.00
2022,01,31,05,37,0.00
2022,01,31,05,38,0.00
2022,01,31,05,39,0.00
2022,01,31,05,40,0.00
2022,01,31,05,41,0.00
2022,01,31,05,42,0.00
2022,01,31,05,43,0.00
2022,01,31,05,44,0.00
2022,01,31,05,45,0.00
2022,01,31,05,46,0.00
2022,01,31,05,47,0.00
2022,01,31,05,48,0.00
2022,01,31,05,49,0.00
2022,01,31,05,50,0.00
2022,01,31,05,51,0.00
2022,01,31,05,52,0.00
2022,01,31,05,53,0.00
2022,01,31,05,54,0.00
2022,01,31,05,55,0.00
2022,01,31,05,56,0.00
2022,01,31,05,57,0.00
2022,01,31,05,58,0.00
2022,01,31,05,59,0.00
2022,01,31,06,00,0.00
2022,01,31,06,01,0.00
2022,01,31,06,02,0.00
2022,01,31,06,03,0.00
2022,01,31,06,04,0.00
2022,01,31,06,05,0.00
2022,01,31,06,06,0.00
2022,01,31,06,07,0.00
2022,01,31,06,08,0.00
2022,01,31,06,09,0.00
2022,01,31,06,10,0.00
2022,01,31,06,11,0.00
2022,01,31,06,12,0.00
2022,01,31,06,13,0.00
2022,01,31,06,14,0.00
2022,01,31,06,15,0.00
2022,01,31,06,16,0.00
2022,01,31,06,17,0.00
2022,01,31,06,18,0.00
2022,01,31,06,19,0.00
2022,01,31,06,20,0.00
2022,01,31,06,21,0.00
2022,01,31,06,22,0.00
2022,01,31,06,23,0.00
2022,01,31,06,24,0.00
2022,01,31,06,25,0.00
2022,01,31,06,26,0.00
2022,01,31,06,27,0.00
2022,01,31,06,28,0.00
2022,01,31,06,29,0.00
2022,01,31,06,30,0.00
2022,01,31,06,31,0.00
2022,01,31,06,32,0.00
2022,01,31,06,33,0.00
2022,01,31,06,34,0.00
2022,01,31,06,35,0.00
2022,01,31,06,36,0.00
2022,01,31,06,37,0.00
2022,01,31,06,38,0.00
2022,01,31,06,39,0.00
2022,01,31,06,40,0.00
2022,01,31,06,41,0.00
2022,01,31,06,42,0.00
2022,01,31,06,43,0.00
2022,01,31,06,44,0.00
2022,01,31,06,45,0.00
2022,01,31,06,46,0.00
2022,01,31,06,47,0.00
2022,01,31,06,48,0.00
2022,01,31,06,49,0.00
2022,01,31,06,50,0.00
2022,01,31,06,51,0.00
2022,01,31,06,52,0.00
2022,01,31,06,53,0.00
2022,01,31,06,54,0.00
2022,01,31,06,55,0.00
2022,01,31,06,56,0.00
2022,01,31,06,57,0.00
2022,01,31,06,58,0.00
2022,01,31,06,59,0.00
2022,01,31,07,00,0.00
2022,01,31,07,01,0.00
2022,01,31,07,02,0.00
2022,01,31,07,03,0.00
2022,01,31,07,04,0.00
2022,01,31,07,05,0.00
2022,01,31,07,06,0.00
2022,01,31,07,07,0.00
2022,01,31,07,08,0.00
2022,01,31,07,09,0.00
2022,01,31,07,10,0.00
2022,01,31,07,11,0.00
2022,01,31,07,12,0.00
2022,01,31,07,13,0.00
2022,01,31,07,14,0.00
2022,01,31,07,15,0.00
2022,01,31,07,16,0.00
2022,01,31,07,17,0.00
2022,01,31,07,18,0.00
2022,01,31,07,19,0.00
2022,01,31,07,20,0.00
2022,01,31,07,21,0.00
2022,01,31,07,22,0.00
2022,01,31,07,23,0.00
2022,01,31,07,24,0.00
2022,01,31,07,25,0.00
2022,01,31,07,26,0.00
2022,01,31,07,27,0.00
2022,01,31,07,28,0.00
2022,01,31,07,29,0.00
2022,01,31,07,30,0.00
2022,01,31,07,31,0.00
2022,01,31,07,32,0.00
2022,01,31,07,33,0.00
2022,01,31,07,34,0.00
2022,01,31,07,35,0.00
2022,01,31,07,36,0.00
2022,01,31,07,37,0.00
2022,01,31,07,38,0.00
2022,01,31,07,39,0.00
2022,01,31,07,40,0.00
2022,01,31,07,41,0.00
2022,01,31,07,42,0.00
2022,01,31,07,43,0.00
2022,01,31,07,44,0.00
2022,01,31,07,45,0.00
2022,01,31,07,46,0.00
2022,01,31,07,47,0.00
2022,01,31,07,48,0.00
2022,01,31,07,49,0.00
2022,01,31,07,50,0.00
2022,01,31,07,51,0.00
2022,01,31,07,52,0.00
2022,01,31,07,53,0.00
2022,01,31,07,54,0.00
2022,01,31,07,55,0.00
2022,01,31,07,56,0.50
2022,01,31,07,57,5.00
2022,01,31,07,58,5.00
2022,01,31,07,59,5.00
2022,01,31,08,00,5.80
2022,01,31,08,01,7.00
2022,01,31,08,02,8.00
2022,01,31,08,03,9.00
2022,01,31,08,04,9.00
2022,01,31,08,05,10.40
2022,01,31,08,06,11.80
2022,01,31,08,07,13.70
2022,01,31,08,08,14.00
2022,01,31,08,09,15.90
2022,01,31,08,10,16.00
2022,01,31,08,11,16.30
2022,01,31,08,12,18.00
2022,01,31,08,13,18.00
2022,01,31,08,14,18.30
2022,01,31,08,15,19.00
2022,01,31,08,16,19.90
2022,01,31,08,17,22.00
2022,01,31,08,18,24.20
2022,01,31,08,19,26.90
2022,01,31,08,20,29.40
2022,01,31,08,21,32.30
2022,01,31,08,22,33.00
2022,01,31,08,23,34.80
2022,01,31,08,24,35.00
2022,01,31,08,25,35.00
2022,01,31,08,26,35.00
2022,01,31,08,27,35.00
2022,01,31,08,28,35.50
2022,01,31,08,29,37.00
2022,01,31,08,30,37.80
2022,01,31,08,31,39.00
2022,01,31,08,32,39.50
2022,01,31,08,33,41.20
2022,01,31,08,34,42.00
2022,01,31,08,35,43.40
2022,01,31,08,36,45.50
2022,01,31,08,37,46.00
2022,01,31,08,38,46.00
2022,01,31,08,39,46.90
2022,01,31,08,40,47.00
2022,01,31,08,41,47.00
2022,01,31,08,42,47.00
2022,01,31,08,43,47.50
2022,01,31,08,44,49.60
2022,01,31,08,45,51.80
2022,01,31,08,46,53.40
2022,01,31,08,47,54.00
2022,01,31,08,48,56.30
2022,01,31,08,49,59.20
2022,01,31,08,50,61.40
2022,01,31,08,51,62.80
2022,01,31,08,52,64.70
2022,01,31,08,53,65.00
2022,01,31,08,54,65.00
2022,01,31,08,55,67.00
2022,01,31,08,56,67.30
2022,01,31,08,57,69.20
2022,01,31,08,58,70.50
2022,01,31,08,59,72.00
2022,01,31,09,00,72.00
2022,01,31,09,01,72.00
2022,01,31,09,02,72.00
2022,01,31,09,03,70.90
2022,01,31,09,04,70.00
2022,01,31,09,05,69.30
2022,01,31,09,06,69.00
2022,01,31,09,07,69.00
2022,01,31,09,08,69.00
2022,01,31,09,09,69.00
2022,01,31,09,10,67.00
2022,01,31,09,11,67.00
2022,01,31,09,12,67.00
2022,01,31,09,13,67.50
2022,01,31,09,14,69.00
2022,01,31,09,15,69.40
2022,01,31,09,16,71.80
2022,01,31,09,17,75.50
2022,01,31,09,18,80.30
2022,01,31,09,19,86.20
2022,01,31,09,20,91.40
2022,01,31,09,21,94.50
2022,01,31,09,22,95.00
2022,01,31,09,23,95.00
2022,01,31,09,24,91.10
2022,01,31,09,25,89.70
2022,01,31,09,26,86.00
2022,01,31,09,27,84.40
2022,01,31,09,28,77.00
2022,01,31,09,29,77.00
2022,01,31,09,30,74.30
2022,01,31,09,31,70.00
2022,01,31,09,32,71.00
2022,01,31,09,33,72.00
2022,01,31,09,34,73.20
2022,01,31,09,35,75.40
2022,01,31,09,36,76.00
2022,01,31,09,37,78.50
2022,01,31,09,38,83.50
2022,01,31,09,39,81.20
2022,01,31,09,40,69.40
2022,01,31,09,41,61.70
2022,01,31,09,42,59.20
2022,01,31,09,43,55.40
2022,01,31,09,44,54.00
2022,01,31,09,45,59.10
2022,01,31,09,46,94.30
2022,01,31,09,47,142.50
2022,01,31,09,48,126.90
2022,01,31,09,49,117.90
2022,01,31,09,50,114.00
2022,01,31,09,51,109.00
2022,01,31,09,52,253.00
2022,01,31,09,53,235.50
2022,01,31,09,54,276.30
2022,01,31,09,55,269.10
2022,01,31,09,56,251.30
2022,01,31,09,57,297.00
2022,01,31,09,58,300.00
2022,01,31,09,59,275.20
2022,01,31,10,00,216.10
2022,01,31,10,01,261.30
2022,01,31,10,02,304.90
2022,01,31,10,03,296.90
2022,01,31,10,04,241.90
2022,01,31,10,05,207.00
2022,01,31,10,06,273.80
2022,01,31,10,07,336.90
2022,01,31,10,08,326.20
2022,01,31,10,09,351.90
2022,01,31,10,10,352.00
2022,01,31,10,11,352.30
2022,01,31,10,12,354.50
2022,01,31,10,13,347.70
2022,01,31,10,14,337.10
2022,01,31,10,15,349.70
2022,01,31,10,16,347.40
2022,01,31,10,17,332.00
2022,01,31,10,18,332.00
2022,01,31,10,19,332.00
2022,01,31,10,20,365.10
2022,01,31,10,21,385.20
2022,01,31,10,22,405.20
2022,01,31,10,23,380.70
2022,01,31,10,24,376.00
2022,01,31,10,25,103.30
2022,01,31,10,26,121.00
2022,01,31,10,27,166.50
2022,01,31,10,28,385.00
2022,01,31,10,29,385.00
2022,01,31,10,30,400.90
2022,01,31,10,31,417.60
2022,01,31,10,32,401.00
2022,01,31,10,33,396.00
2022,01,31,10,34,383.60
2022,01,31,10,35,383.60
2022,01,31,10,36,378.70
2022,01,31,10,37,376.00
2022,01,31,10,38,376.00
2022,01,31,10,39,379.90
2022,01,31,10,40,382.80
2022,01,31,10,41,380.10
2022,01,31,10,42,381.80
2022,01,31,10,43,383.10
2022,01,31,10,44,383.50
2022,01,31,10,45,394.00
2022,01,31,10,46,394.00
2022,01,31,10,47,394.00
2022,01,31,10,48,395.70
2022,01,31,10,49,397.00
2022,01,31,10,50,394.90
2022,01,31,10,51,394.00
2022,01,31,10,52,300.50
2022,01,31,10,53,281.00
2022,01,31,10,54,403.50
2022,01,31,10,55,397.10
2022,01,31,10,56,399.60
2022,01,31,10,57,402.60
2022,01,31,10,58,401.00
2022,01,31,10,59,402.00
2022,01,31,11,00,404.80
2022,01,31,11,01,406.00
2022,01,31,11,02,407.00
2022,01,31,11,03,408.00
2022,01,31,11,04,409.30
2022,01,31,11,05,412.10
2022,01,31,11,06,413.00
2022,01,31,11,07,414.70
2022,01,31,11,08,415.00
2022,01,31,11,09,417.90
2022,01,31,11,10,418.00
2022,01,31,11,11,418.30
2022,01,31,11,12,420.40
2022,01,31,11,13,422.50
2022,01,31,11,14,424.30
2022,01,31,11,15,425.00
2022,01,31,11,16,425.90
2022,01,31,11,17,426.00
2022,01,31,11,18,425.00
2022,01,31,11,19,421.80
2022,01,31,11,20,416.60
2022,01,31,11,21,400.60
2022,01,31,11,22,396.00
2022,01,31,11,23,313.50
2022,01,31,11,24,304.00
2022,01,31,11,25,111.00
2022,01,31,11,26,122.30
2022,01,31,11,27,193.00
2022,01,31,11,28,213.00
2022,01,31,11,29,276.00
2022,01,31,11,30,276.00
2022,01,31,11,31,253.10
2022,01,31,11,32,231.20
2022,01,31,11,33,227.90
2022,01,31,11,34,240.90
2022,01,31,11,35,296.40
2022,01,31,11,36,316.00
2022,01,31,11,37,316.00
2022,01,31,11,38,423.80
2022,01,31,11,39,442.90
2022,01,31,11,40,432.00
2022,01,31,11,41,445.70
2022,01,31,11,42,441.80
2022,01,31,11,43,382.80
2022,01,31,11,44,327.00
2022,01,31,11,45,261.40
2022,01,31,11,46,151.50
2022,01,31,11,47,158.10
2022,01,31,11,48,130.60
2022,01,31,11,49,139.60
2022,01,31,11,50,165.00
2022,01,31,11,51,83.80
2022,01,31,11,52,96.90
2022,01,31,11,53,105.00
2022,01,31,11,54,328.40
2022,01,31,11,55,352.60
2022,01,31,11,56,454.90
2022,01,31,11,57,454.00
2022,01,31,11,58,456.00
2022,01,31,11,59,462.00
2022,01,31,12,00,464.30
2022,01,31,12,01,468.40
2022,01,31,12,02,469.00
2022,01,31,12,03,461.30
2022,01,31,12,04,396.00
2022,01,31,12,05,388.30
2022,01,31,12,06,395.70
2022,01,31,12,07,350.50
2022,01,31,12,08,341.00
2022,01,31,12,09,446.20
2022,01,31,12,10,374.00
2022,01,31,12,11,374.00
2022,01,31,12,12,350.80
2022,01,31,12,13,244.00
2022,01,31,12,14,312.90
2022,01,31,12,15,441.40
2022,01,31,12,16,436.40
2022,01,31,12,17,485.00
2022,01,31,12,18,490.10
2022,01,31,12,19,491.50
2022,01,31,12,20,491.40
2022,01,31,12,21,489.80
2022,01,31,12,22,489.80
2022,01,31,12,23,490.00
2022,01,31,12,24,491.90
2022,01,31,12,25,429.00
2022,01,31,12,26,497.60
2022,01,31,12,27,501.40
2022,01,31,12,28,503.20
2022,01,31,12,29,504.60
2022,01,31,12,30,507.50
2022,01,31,12,31,511.30
2022,01,31,12,32,513.00
2022,01,31,12,33,514.20
2022,01,31,12,34,515.00
2022,01,31,12,35,520.00
2022,01,31,12,36,525.00
2022,01,31,12,37,505.30
2022,01,31,12,38,501.00
2022,01,31,12,39,443.40
2022,01,31,12,40,520.30
2022,01,31,12,41,469.60
2022,01,31,12,42,475.50
2022,01,31,12,43,532.90
2022,01,31,12,44,539.00
2022,01,31,12,45,543.70
2022,01,31,12,46,553.60
2022,01,31,12,47,566.80
2022,01,31,12,48,579.10
2022,01,31,12,49,584.00
2022,01,31,12,50,593.70
2022,01,31,12,51,616.20
2022,01,31,12,52,625.30
2022,01,31,12,53,619.80
2022,01,31,12,54,619.00
2022,01,31,12,55,665.80
2022,01,31,12,56,654.00
2022,01,31,12,57,598.00
2022,01,31,12,58,526.60
2022,01,31,12,59,290.60
2022,01,31,13,00,291.00
2022,01,31,13,01,325.00
2022,01,31,13,02,483.30
2022,01,31,13,03,631.00
2022,01,31,13,04,669.60
2022,01,31,13,05,689.60
2022,01,31,13,06,704.90
2022,01,31,13,07,721.60
2022,01,31,13,08,735.60
2022,01,31,13,09,748.10
2022,01,31,13,10,749.00
2022,01,31,13,11,749.00
2022,01,31,13,12,749.00
2022,01,31,13,13,749.00
2022,01,31,13,14,749.00
2022,01,31,13,15,749.00
2022,01,31,13,16,714.00
2022,01,31,13,17,657.60
2022,01,31,13,18,645.00
2022,01,31,13,19,637.30
2022,01,31,13,20,633.00
2022,01,31,13,21,487.50
2022,01,31,13,22,439.00
2022,01,31,13,23,439.00
2022,01,31,13,24,666.40
2022,01,31,13,25,663.10
2022,01,31,13,26,650.30
2022,01,31,13,27,637.90
2022,01,31,13,28,615.70
2022,01,31,13,29,593.70
2022,01,31,13,30,630.50
2022,01,31,13,31,624.90
2022,01,31,13,32,599.50
2022,01,31,13,33,571.30
2022,01,31,13,34,546.70
2022,01,31,13,35,518.70
2022,01,31,13,36,448.60
2022,01,31,13,37,429.00
2022,01,31,13,38,354.90
2022,01,31,13,39,261.10
2022,01,31,13,40,208.90
2022,01,31,13,41,255.30
2022,01,31,13,42,301.00
2022,01,31,13,43,301.00
2022,01,31,13,44,301.00
2022,01,31,13,45,318.40
2022,01,31,13,46,321.50
2022,01,31,13,47,308.50
2022,01,31,13,48,359.50
2022,01,31,13,49,399.20
2022,01,31,13,50,404.00
2022,01,31,13,51,276.60
2022,01,31,13,52,240.10
2022,01,31,13,53,241.00
2022,01,31,13,54,422.60
2022,01,31,13,55,413.60
2022,01,31,13,56,121.60
2022,01,31,13,57,110.30
2022,01,31,13,58,100.00
2022,01,31,13,59,94.50
2022,01,31,14,00,81.20
2022,01,31,14,01,74.80
2022,01,31,14,02,72.00
2022,01,31,14,03,72.00
2022,01,31,14,04,79.40
2022,01,31,14,05,94.00
2022,01,31,14,06,138.20
2022,01,31,14,07,164.20
2022,01,31,14,08,183.10
2022,01,31,14,09,224.10
2022,01,31,14,10,182.40
2022,01,31,14,11,170.10
2022,01,31,14,12,151.20
2022,01,31,14,13,151.00
2022,01,31,14,14,88.50
2022,01,31,14,15,78.40
2022,01,31,14,16,70.70
2022,01,31,14,17,68.00
2022,01,31,14,18,68.70
2022,01,31,14,19,114.90
2022,01,31,14,20,172.30
2022,01,31,14,21,141.50
2022,01,31,14,22,199.20
2022,01,31,14,23,199.90
2022,01,31,14,24,164.20
2022,01,31,14,25,80.00
2022,01,31,14,26,66.40
2022,01,31,14,27,63.00
2022,01,31,14,28,63.00
2022,01,31,14,29,63.00
2022,01,31,14,30,63.00
2022,01,31,14,31,63.90
2022,01,31,14,32,66.00
2022,01,31,14,33,69.80
2022,01,31,14,34,70.10
2022,01,31,14,35,69.00
2022,01,31,14,36,72.80
2022,01,31,14,37,74.00
2022,01,31,14,38,74.00
2022,01,31,14,39,67.50
2022,01,31,14,40,67.00
2022,01,31,14,41,67.40
2022,01,31,14,42,71.20
2022,01,31,14,43,78.20
2022,01,31,14,44,86.10
2022,01,31,14,45,90.00
2022,01,31,14,46,105.30
2022,01,31,14,47,113.80
2022,01,31,14,48,100.70
2022,01,31,14,49,98.00
2022,01,31,14,50,98.00
2022,01,31,14,51,97.20
2022,01,31,14,52,95.30
2022,01,31,14,53,91.40
2022,01,31,14,54,86.20
2022,01,31,14,55,78.40
2022,01,31,14,56,70.00
2022,01,31,14,57,67.90
2022,01,31,14,58,59.00
2022,01,31,14,59,55.00
2022,01,31,15,00,51.30
2022,01,31,15,01,48.10
2022,01,31,15,02,46.50
2022,01,31,15,03,44.90
2022,01,31,15,04,44.00
2022,01,31,15,05,42.60
2022,01,31,15,06,40.50
2022,01,31,15,07,40.00
2022,01,31,15,08,39.10
2022,01,31,15,09,37.10
2022,01,31,15,10,35.00
2022,01,31,15,11,34.70
2022,01,31,15,12,32.80
2022,01,31,15,13,32.00
2022,01,31,15,14,32.00
2022,01,31,15,15,32.00
2022,01,31,15,16,31.10
2022,01,31,15,17,30.00
2022,01,31,15,18,30.00
2022,01,31,15,19,30.00
2022,01,31,15,20,30.00
2022,01,31,15,21,30.00
2022,01,31,15,22,30.00
2022,01,31,15,23,30.00
2022,01,31,15,24,30.00
2022,01,31,15,25,28.00
2022,01,31,15,26,28.00
2022,01,31,15,27,28.00
2022,01,31,15,28,28.00
2022,01,31,15,29,28.00
2022,01,31,15,30,28.00
2022,01,31,15,31,28.90
2022,01,31,15,32,31.00
2022,01,31,15,33,32.60
2022,01,31,15,34,35.50
2022,01,31,15,35,39.10
2022,01,31,15,36,44.60
2022,01,31,15,37,50.10
2022,01,31,15,38,55.30
2022,01,31,15,39,62.50
2022,01,31,15,40,63.80
2022,01,31,15,41,74.40
2022,01,31,15,42,77.30
2022,01,31,15,43,79.50
2022,01,31,15,44,80.40
2022,01,31,15,45,77.90
2022,01,31,15,46,75.10
2022,01,31,15,47,72.00
2022,01,31,15,48,69.40
2022,01,31,15,49,66.50
2022,01,31,15,50,63.60
2022,01,31,15,51,62.20
2022,01,31,15,52,62.00
2022,01,31,15,53,69.10
2022,01,31,15,54,58.80
2022,01,31,15,55,61.00
2022,01,31,15,56,76.20
2022,01,31,15,57,93.90
2022,01,31,15,58,113.00
2022,01,31,15,59,129.30
2022,01,31,16,00,139.80
2022,01,31,16,01,136.10
2022,01,31,16,02,125.50
2022,01,31,16,03,111.60
2022,01,31,16,04,94.10
2022,01,31,16,05,75.60
2022,01,31,16,06,60.90
2022,01,31,16,07,84.50
2022,01,31,16,08,113.30
2022,01,31,16,09,107.10
2022,01,31,16,10,102.00
2022,01,31,16,11,102.00
2022,01,31,16,12,99.60
2022,01,31,16,13,85.80
2022,01,31,16,14,81.80
2022,01,31,16,15,92.60
2022,01,31,16,16,89.20
2022,01,31,16,17,69.30
2022,01,31,16,18,81.30
2022,01,31,16,19,93.80
2022,01,31,16,20,72.30
2022,01,31,16,21,55.40
2022,01,31,16,22,55.50
2022,01,31,16,23,45.70
2022,01,31,16,24,40.20
2022,01,31,16,25,41.40
2022,01,31,16,26,32.30
2022,01,31,16,27,27.60
2022,01,31,16,28,25.70
2022,01,31,16,29,24.40
2022,01,31,16,30,22.20
2022,01,31,16,31,21.00
2022,01,31,16,32,21.00
2022,01,31,16,33,21.00
2022,01,31,16,34,21.00
2022,01,31,16,35,21.00
2022,01,31,16,36,21.00
2022,01,31,16,37,21.00
2022,01,31,16,38,22.80
2022,01,31,16,39,21.10
2022,01,31,16,40,21.00
2022,01,31,16,41,21.00
2022,01,31,16,42,21.00
2022,01,31,16,43,21.00
2022,01,31,16,44,21.00
2022,01,31,16,45,20.20
2022,01,31,16,46,19.00
2022,01,31,16,47,18.50
2022,01,31,16,48,18.00
2022,01,31,16,49,16.80
2022,01,31,16,50,16.00
2022,01,31,16,51,16.00
2022,01,31,16,52,14.30
2022,01,31,16,53,14.00
2022,01,31,16,54,14.00
2022,01,31,16,55,12.00
2022,01,31,16,56,12.00
2022,01,31,16,57,12.00
2022,01,31,16,58,11.80
2022,01,31,16,59,11.00
2022,01,31,17,00,11.00
2022,01,31,17,01,11.00
2022,01,31,17,02,11.00
2022,01,31,17,03,11.00
2022,01,31,17,04,9.80
2022,01,31,17,05,9.00
2022,01,31,17,06,9.00
2022,01,31,17,07,9.00
2022,01,31,17,08,7.20
2022,01,31,17,09,7.00
2022,01,31,17,10,7.00
2022,01,31,17,11,7.00
2022,01,31,17,12,6.60
2022,01,31,17,13,5.00
2022,01,31,17,14,5.00
2022,01,31,17,15,5.00
2022,01,31,17,16,5.00
2022,01,31,17,17,2.40
2022,01,31,17,18,0.00
2022,01,31,17,19,0.00
2022,01,31,17,20,0.00
2022,01,31,17,21,0.00
2022,01,31,17,22,0.00
2022,01,31,17,23,0.00
2022,01,31,17,24,0.00
2022,01,31,17,25,0.00
2022,01,31,17,26,0.00
2022,01,31,17,27,0.00
2022,01,31,17,28,0.00
2022,01,31,17,29,0.00